EW0608 Weather Reports


Display with metric or nautical units.
time (UTC)temp
F
wind
direction
speed
MPH
gust
MPH
rain 1hr
in
rain 24hr
in
rain mn
in
humidity
%
barometer
mb
20260905233347 74 97 0.0 0.0 0.00 0.00 0.00 90 1011.7
20260905233041 74 97 0.0 0.0 0.00 0.00 0.00 91 1010.5
20260905232841 74 97 0.0 0.0 0.00 0.00 0.00 91 1011.7
20260905232413 74 97 0.0 0.0 0.00 0.00 0.00 91 1011.7
20260905231843 74 97 0.0 0.0 0.00 0.00 0.00 90 1011.7
20260905231555 74 97 0.0 0.0 0.00 0.00 0.00 90 1010.6
20260905231355 74 97 0.0 0.0 0.00 0.00 0.00 90 1011.6
20260905230908 74 97 0.0 0.0 0.00 0.00 0.00 90 1011.6
20260905230340 74 97 0.0 0.0 0.00 0.00 0.00 90 1011.5
20260905230050 74 97 0.0 0.0 0.00 0.00 0.00 90 1010.4
20260905225849 74 97 0.0 0.0 0.00 0.00 0.00 90 1011.5
20260905225343 75 97 0.0 0.0 0.00 0.00 0.00 90 1011.6
20260905224855 75 122 0.0 0.0 0.00 0.00 0.00 90 1011.4
20260905224549 74 121 0.0 0.0 0.00 0.00 0.00 90 1010.2
20260905224348 75 122 0.0 0.0 0.00 0.00 0.00 90 1011.3
20260905223840 75 122 0.0 0.0 0.00 0.00 0.00 90 1011.3
20260905223352 75 227 0.0 0.0 0.00 0.00 0.00 90 1011.3
20260905223007 74 227 0.0 0.0 0.00 0.00 0.00 90 1010.2
20260905222906 75 63 0.0 0.0 0.00 0.00 0.00 90 1011.3
20260905222338 75 63 0.0 0.0 0.00 0.00 0.00 89 1011.2
20260905221850 75 63 0.0 0.0 0.00 0.00 0.00 89 1011.1
20260905221544 74 63 0.0 0.0 0.00 0.00 0.00 89 1010.1
20260905221343 75 63 0.0 0.0 0.00 0.00 0.00 89 1011.2
20260905220856 75 63 0.0 0.0 0.00 0.00 0.00 89 1011.1
20260905220350 75 63 0.0 0.0 0.00 0.00 0.00 89 1011.1
20260905220042 74 63 0.0 0.0 0.00 0.00 0.00 89 1010.0
20260905215840 75 63 0.0 0.0 0.00 0.00 0.00 88 1011.0
20260905215414 75 63 0.0 0.0 0.00 0.00 0.00 88 1011.0
20260905214846 75 63 0.0 0.0 0.00 0.00 0.00 89 1010.9
20260905214538 74 63 0.0 0.0 0.00 0.00 0.00 89 1009.8
20260905214338 74 63 0.0 0.0 0.00 0.00 0.00 89 1010.9
20260905213912 74 63 0.0 0.0 0.00 0.00 0.00 90 1010.9
20260905213342 74 63 0.0 1.0 0.00 0.00 0.00 90 1010.8
20260905213036 73 63 0.0 1.0 0.00 0.00 0.00 90 1009.7
20260905212836 74 63 0.0 1.0 0.00 0.00 0.00 91 1010.8
20260905212350 74 63 0.0 0.0 0.00 0.00 0.00 91 1010.6
20260905211522 73 63 0.0 0.0 0.00 0.00 0.00 91 1009.4
20260905210019 73 63 0.0 1.0 0.00 0.00 0.00 90 1009.3
20260905204519 73 63 0.0 1.0 0.00 0.00 0.00 90 1009.6
20260905203018 73 132 0.0 1.0 0.00 0.00 0.00 89 1009.9
20260905201519 74 80 1.0 3.0 0.00 0.00 0.00 87 1009.9
20260905200024 75 11 1.0 4.0 0.00 0.00 0.00 83 1010.1
20260905194517 79 88 0.0 1.0 0.00 0.00 0.00 84 1009.8
20260905193015 79 231 0.0 0.0 0.00 0.00 0.00 81 1009.6
20260905191513 80 80 0.0 0.0 0.00 0.00 0.00 87 1009.8
20260905190010 77 246 0.0 0.0 0.00 0.00 0.00 91 1010.0
20260905184519 77 246 0.0 0.0 0.00 0.00 0.00 89 1010.2
20260905183007 77 246 0.0 0.0 0.00 0.00 0.00 92 1010.2
20260905181505 76 246 0.0 0.0 0.00 0.00 0.00 90 1010.4
20260905180007 78 246 0.0 0.0 0.00 0.00 0.00 89 1010.6
20260905174502 76 229 0.0 0.0 0.00 0.00 0.00 92 1010.7
20260905173059 74 229 0.0 0.0 0.00 0.00 0.00 93 1010.9
20260905171557 73 229 0.0 0.0 0.00 0.00 0.00 95 1011.0
20260905170057 71 229 0.0 0.0 0.00 0.00 0.00 94 1011.2
20260905164553 70 229 0.0 0.0 0.00 0.00 0.00 94 1011.4
20260905163051 70 229 0.0 0.0 0.00 0.00 0.00 94 1011.6
20260905161551 70 229 0.0 0.0 0.00 0.00 0.00 95 1011.8
20260905160055 70 226 0.0 0.0 0.00 0.00 0.00 95 1011.8
20260905154551 71 226 0.0 0.0 0.00 0.00 0.00 95 1011.9
20260905153104 70 226 0.0 0.0 0.00 0.00 0.00 95 1012.0
20260905151548 70 227 0.0 0.0 0.00 0.00 0.00 95 1012.1
20260905150049 69 227 0.0 0.0 0.00 0.00 0.00 95 1012.3
20260905144544 69 226 0.0 0.0 0.00 0.00 0.00 95 1012.4
20260905143843 69 226 0.0 0.0 0.00 0.00 0.00 95 1013.4
20260905143337 69 227 0.0 0.0 0.00 0.00 0.00 95 1013.3
20260905143049 69 226 0.0 0.0 0.00 0.00 0.00 95 1012.3
20260905142849 69 227 0.0 0.0 0.00 0.00 0.00 95 1013.3
20260905142341 69 227 0.0 0.0 0.00 0.00 0.00 95 1013.3
20260905141914 69 226 0.0 1.0 0.00 0.00 0.00 95 1013.4
20260905141557 68 226 0.0 1.0 0.00 0.00 0.00 95 1012.3
20260905141346 69 226 0.0 1.0 0.00 0.00 0.00 95 1013.3
20260905140839 69 227 0.0 0.0 0.00 0.00 0.00 95 1013.4
20260905140413 69 227 0.0 0.0 0.00 0.00 0.00 95 1013.4
20260905140042 68 226 0.0 0.0 0.00 0.00 0.00 95 1012.4
20260905135840 69 226 0.0 0.0 0.00 0.00 0.00 95 1013.4
20260905135354 69 227 0.0 0.0 0.00 0.00 0.00 95 1013.3
20260905134846 69 227 0.0 0.0 0.00 0.00 0.00 95 1013.3
20260905134540 68 227 0.0 0.0 0.00 0.00 0.00 95 1012.3
20260905134339 69 227 0.0 0.0 0.00 0.00 0.00 95 1013.3
20260905133851 69 226 0.0 1.0 0.00 0.00 0.00 95 1013.2
20260905133348 69 227 0.0 1.0 0.00 0.00 0.00 95 1013.1
20260905133158 68 226 0.0 0.0 0.00 0.00 0.00 95 1012.0
20260905133058 69 227 0.0 0.0 0.00 0.00 0.00 95 1013.0
20260905131616 68 227 0.0 0.0 0.00 0.00 0.00 95 1011.4
20260905130059 67 227 0.0 0.0 0.00 0.00 0.00 95 1011.5
20260905124559 67 226 0.0 0.0 0.00 0.00 0.00 95 1012.0
20260905123100 66 226 0.0 0.0 0.00 0.00 0.00 95 1011.9
20260905121557 66 226 0.0 0.0 0.00 0.00 0.00 95 1011.7
20260905120056 66 226 0.0 1.0 0.00 0.00 0.00 95 1011.5
20260905114556 66 211 0.0 0.0 0.00 0.00 0.00 95 1011.2
20260905113054 66 211 0.0 0.0 0.00 0.00 0.00 95 1011.3
20260905111556 66 211 0.0 0.0 0.00 0.00 0.00 95 1011.2
20260905110053 65 211 0.0 0.0 0.00 0.00 0.00 95 1011.0
20260905104556 65 211 0.0 0.0 0.00 0.00 0.00 95 1010.8
20260905103054 66 211 0.0 1.0 0.00 0.00 0.00 95 1011.1
20260905101550 66 227 0.0 0.0 0.00 0.00 0.00 95 1010.7
20260905100108 66 227 0.0 0.0 0.00 0.00 0.00 95 1010.6
20260905094550 66 227 0.0 0.0 0.00 0.00 0.00 95 1010.6
20260905093047 66 227 0.0 0.0 0.00 0.00 0.00 95 1010.6
20260905091546 66 227 0.0 0.0 0.00 0.00 0.00 95 1010.5
20260905090103 66 227 0.0 0.0 0.00 0.00 0.00 95 1010.5
20260905084545 67 227 0.0 0.0 0.00 0.00 0.00 95 1010.6
20260905083049 67 227 0.0 0.0 0.00 0.00 0.00 95 1010.6
20260905081547 67 227 0.0 0.0 0.00 0.00 0.00 95 1010.6
20260905080046 67 227 0.0 0.0 0.00 0.00 0.00 95 1010.8
20260905074539 67 227 0.0 0.0 0.00 0.00 0.00 95 1010.8
20260905073038 67 227 0.0 0.0 0.00 0.00 0.00 95 1010.9
20260905071539 67 227 0.0 0.0 0.00 0.00 0.00 95 1011.0
20260905070033 67 227 0.0 0.0 0.00 0.00 0.00 95 1011.3
20260905064532 67 227 0.0 0.0 0.00 0.00 0.00 95 1011.5
20260905063029 68 227 0.0 0.0 0.00 0.00 0.00 95 1011.7
20260905061527 68 227 0.0 0.0 0.00 0.00 0.00 95 1011.9
20260905060032 68 227 0.0 0.0 0.00 0.00 0.00 95 1012.2
20260905054545 68 227 0.0 0.0 0.00 0.00 0.00 95 1012.3
20260905054343 69 227 0.0 0.0 0.00 0.00 0.00 95 1013.4
20260905053916 69 227 0.0 0.0 0.00 0.00 0.00 95 1013.5
20260905053348 69 227 0.0 0.0 0.00 0.00 0.00 95 1013.6
20260905053041 68 227 0.0 0.0 0.00 0.00 0.00 95 1012.5
20260905052839 69 227 0.0 0.0 0.00 0.00 0.00 95 1013.7
20260905052353 69 227 0.0 0.0 0.00 0.00 0.00 95 1013.6
20260905051847 69 227 0.0 0.0 0.00 0.00 0.00 95 1013.5
20260905051542 68 227 0.0 0.0 0.00 0.00 0.00 95 1012.5
20260905051338 69 227 0.0 0.0 0.00 0.00 0.00 95 1013.5
20260905050852 69 227 0.0 0.0 0.00 0.00 0.00 95 1013.8
20260905050346 69 227 0.0 0.0 0.00 0.00 0.00 95 1013.8
20260905050018 68 227 0.0 0.0 0.00 0.00 0.00 95 1012.7
20260905045916 69 227 0.0 0.0 0.00 0.00 0.00 95 1013.9
20260905045346 69 227 0.0 0.0 0.00 0.00 0.00 95 1014.0
20260905044843 69 227 0.0 0.0 0.00 0.00 0.00 95 1014.1
20260905044557 69 227 0.0 0.0 0.00 0.00 0.00 95 1013.0
20260905044356 69 227 0.0 0.0 0.00 0.00 0.00 95 1014.0
20260905043848 69 227 0.0 0.0 0.00 0.00 0.00 95 1014.0
20260905043340 69 227 0.0 0.0 0.00 0.00 0.00 95 1014.0
20260905043053 69 227 0.0 0.0 0.00 0.00 0.00 95 1012.8
20260905042852 69 227 0.0 0.0 0.00 0.00 0.00 95 1014.0
20260905042405 69 227 0.0 0.0 0.00 0.00 0.00 95 1014.1
20260905041836 69 227 0.0 0.0 0.00 0.00 0.00 95 1014.1
20260905041551 69 227 0.0 0.0 0.00 0.00 0.00 95 1012.9
20260905041349 69 227 0.0 0.0 0.00 0.00 0.00 95 1014.0
20260905040840 70 227 0.0 0.0 0.00 0.00 0.00 95 1014.1
20260905040415 70 227 0.0 0.0 0.00 0.00 0.00 95 1014.2
20260905040006 69 227 0.0 0.0 0.00 0.00 0.00 95 1013.0
20260905035902 70 227 0.0 0.0 0.00 0.00 0.00 95 1014.2
20260905035354 70 227 0.0 0.0 0.00 0.00 0.00 95 1014.1
20260905034847 70 227 0.0 0.0 0.00 0.00 0.00 95 1014.1
20260905034542 69 227 0.0 0.0 0.00 0.00 0.00 95 1012.9
20260905034341 70 227 0.0 0.0 0.00 0.00 0.00 95 1014.1
20260905033853 70 227 0.0 0.0 0.00 0.00 0.00 95 1014.0
20260905033406 70 227 0.0 0.0 0.00 0.00 0.00 95 1014.1
20260905033038 69 227 0.0 0.0 0.00 0.00 0.00 95 1012.9
20260905032837 70 227 0.0 0.0 0.00 0.00 0.00 95 1014.0
20260905032349 70 227 0.0 0.0 0.00 0.00 0.00 95 1013.9
20260905031843 70 227 0.0 0.0 0.00 0.00 0.00 95 1014.0
20260905031609 69 227 0.0 0.0 0.00 0.00 0.00 95 1012.9
20260905031355 70 227 0.0 0.0 0.00 0.00 0.00 95 1014.1
20260905030907 70 227 0.0 0.0 0.00 0.00 0.00 95 1013.8
20260905030357 70 227 0.0 0.0 0.00 0.00 0.00 95 1014.0
20260905030048 69 227 0.0 0.0 0.00 0.00 0.00 95 1012.9
20260905025847 70 227 0.0 0.0 0.00 0.00 0.00 95 1013.9
20260905025359 70 227 0.0 0.0 0.00 0.00 0.00 95 1013.8
20260905024913 70 227 0.0 0.0 0.00 0.00 0.00 95 1013.9
20260905024543 70 227 0.0 0.0 0.00 0.00 0.00 95 1012.8
20260905024341 70 227 0.0 0.0 0.00 0.00 0.00 95 1013.9
20260905023855 70 227 0.0 0.0 0.00 0.00 0.00 95 1013.9
20260905023427 70 227 0.0 0.0 0.00 0.00 0.00 95 1013.9
20260905023056 70 227 0.0 0.0 0.00 0.00 0.00 95 1012.7
20260905022855 70 227 0.0 0.0 0.00 0.00 0.00 95 1013.8
20260905022347 70 227 0.0 0.0 0.00 0.00 0.00 95 1013.8
20260905021900 70 227 0.0 0.0 0.00 0.00 0.00 95 1013.5
20260905021556 70 227 0.0 0.0 0.00 0.00 0.00 95 1012.4
20260905021352 70 227 0.0 0.0 0.00 0.00 0.00 95 1013.5
20260905020843 71 227 0.0 0.0 0.00 0.00 0.00 95 1013.5
20260905020358 71 227 0.0 0.0 0.00 0.00 0.00 95 1013.5
20260905020046 70 227 0.0 0.0 0.00 0.00 0.00 95 1012.3
20260905015846 71 227 0.0 0.0 0.00 0.00 0.00 95 1013.4
20260905015338 71 227 0.0 0.0 0.00 0.00 0.00 95 1013.3
20260905014911 71 227 0.0 0.0 0.00 0.00 0.00 95 1013.1
20260905014506 70 227 0.0 0.0 0.00 0.00 0.00 95 1012.0
20260905014403 71 227 0.0 0.0 0.00 0.00 0.00 95 1013.1
20260905013854 71 227 0.0 0.0 0.00 0.00 0.00 95 1013.1
20260905013346 71 227 0.0 0.0 0.00 0.00 0.00 95 1013.2
20260905013103 71 227 0.0 0.0 0.00 0.00 0.00 95 1012.1
20260905012859 71 227 0.0 0.0 0.00 0.00 0.00 95 1013.2
20260905012351 71 227 0.0 0.0 0.00 0.00 0.00 95 1013.2
20260905011844 71 227 0.0 0.0 0.00 0.00 0.00 95 1013.1
20260905011517 71 227 0.0 0.0 0.00 0.00 0.00 95 1011.9
20260905011416 71 227 0.0 0.0 0.00 0.00 0.00 95 1013.1
20260905010907 71 227 0.0 0.0 0.00 0.00 0.00 95 1013.1
20260905010400 71 227 0.0 0.0 0.00 0.00 0.00 95 1013.1
20260905010027 71 227 0.0 0.0 0.00 0.00 0.00 95 1011.8
20260905004835 72 227 0.0 0.0 0.00 0.00 0.00 95 1013.0
20260905004549 71 227 0.0 0.0 0.00 0.00 0.00 95 1011.8
20260905004348 72 227 0.0 0.0 0.00 0.00 0.00 95 1013.0
20260905003842 72 227 327.0 327.0 0.00 0.00 0.00 95 1012.6
20260905003355 72 227 0.0 0.0 0.00 0.00 0.00 95 1012.9
20260905003050 71 227 0.0 0.0 0.00 0.00 0.00 95 1011.8
20260905002848 72 227 0.0 0.0 0.00 0.00 0.00 95 1013.0
20260905002341 72 227 0.0 0.0 0.00 0.00 0.00 95 1012.9
20260905001506 71 227 0.0 0.0 0.00 0.00 0.00 95 1011.7
20260905001403 72 227 0.0 0.0 0.00 0.00 0.00 95 1012.8
20260905000855 72 227 0.0 0.0 0.00 0.00 0.00 94 1012.7
20260905000409 72 227 0.0 0.0 0.00 0.00 0.00 94 1012.7
20260905000050 72 227 0.0 0.0 0.00 0.00 0.00 95 1011.4
20260904235836 72 227 0.0 0.0 0.00 0.00 0.00 95 1012.8
20260904235348 73 227 0.0 0.0 0.00 0.00 0.00 95 1012.7
20260904234841 73 227 0.0 0.0 0.00 0.00 0.00 94 1012.8
20260904234555 72 227 0.0 0.0 0.00 0.00 0.00 94 1011.6
20260904234355 73 227 0.0 0.0 0.00 0.00 0.00 94 1012.8
20260904233847 73 227 0.0 0.0 0.00 0.00 0.00 94 1012.8